User: anonymous
Location: Unspecified
(0.0000°N, 0.0000°E)
Time: 13:51:44
(UTC+00:00)
Language:

Landsat 7 - Orbit

View from above orbital plane
View from above orbital plane
View from above satellite
View from above satellite

Ground track
Ground track

The orbit data is extracted from the following two-line orbital elements,

1 25682U 99020A   14273.15255358  .00000464  00000-0  11310-3 0  6624
2 25682 098.2282 341.3757 0001071 070.9158 289.2283 14.57094198822278
Epoch (UTC): 30 September 2014 03:39:40
Eccentricity: 0.0001071
inclination: 98.2282°
perigee height: 702 km
apogee height: 703 km
right ascension of ascending node: 341.3757°
argument of perigee: 70.9158°
revolutions per day: 14.57094198
mean anomaly at epoch: 289.2283°
orbit number at epoch: 82227

The dashed part of the orbit path shows where the satellite is in the earth's shadow,  

DLR